Tracking 19476 objects as of 17-Jan-2019
HD Live streaming from Space Station
objects crossing your sky now

COSMOS 858

Track COSMOS 858 now!
10-day predictions
COSMOS 858 is classified as:


NORAD ID: 9443
Int'l Code: 1976-098A
Perigee: 775.7 km
Apogee: 794.6 km
Inclination: 74.0 °
Period: 100.4 minutes
Semi major axis: 7156 km
RCS: 2.2223 m2 (large)
Launch date: September 29, 1976
Source: Commonwealth of Independent States (former USSR) (CIS)
Launch site: PLESETSK MISSILE AND SPACE COMPLEX (PKMTR)
aabbcc
Your satellite tracking list
Your tracking list is empty




NASA's NSSDC Master Catalog

Two Line Element Set (TLE):
1  9443U 76098A   19016.69969920 +.00000006 +00000-0 +11502-4 0  9996
2  9443 074.0497 073.6574 0013173 144.8947 215.3076 14.34116222210392
Source of the keplerian elements: AFSPC